User: anonymous   Login
Location: Lichtensteig
(47.3376°N, 9.0841°E)
Time: 14:30:54
(UTC+00:00)
Language:

Cosmos 2333 Rocket - Orbit

View from above orbital plane
View from above orbital plane
View from above satellite
View from above satellite

Ground track
Ground track

The orbit data is extracted from the following two-line orbital elements,

1 24298U 96051B   21126.94089825 -.00000195  00000-0 -78967-4 0  9991
2 24298  70.8294 308.5000 0018234 235.7552 124.1841 14.12449362272299
Epoch (UTC): 06 May 2021 22:34:53
Eccentricity: 0.0018234
inclination: 70.8294°
perigee height: 838 km
apogee height: 864 km
right ascension of ascending node: 308.5000°
argument of perigee: 235.7552°
revolutions per day: 14.12449362
mean anomaly at epoch: 124.1841°
orbit number at epoch: 27229

The dashed part of the orbit path shows where the satellite is in the earth's shadow,  

DLR